Location: B?dimalle
(17.1788°N, 80.5377°E)
Time: 09:49:31
(UTC+00:00)

Tiros 1 despin weight - Pass Details

Date: 16 February 2026
Orbit: 556 x 593 km, 48.2° (Epoch: 10 March)

Event Time Altitude Azimuth Distance (km) Brightness Sun altitude
Rises 08:47:48 0° 239° (WSW) 2,750 ? 48.9°
Reaches altitude 10° 08:50:13 10° 249° (WSW) 1,848 ? 48.5°
Maximum altitude 08:54:04 34° 315° (NW) 924 ? 47.8°
Drops below altitude 10° 08:57:54 10° 21° (NNE) 1,834 ? 47.2°
Sets 09:00:18 0° 30° (NNE) 2,725 ? 46.7°
